Time,TemperatureF,DewpointF,PressureIn,WindDirection,WindDirectionDegrees,WindSpeedMPH,WindSpeedGustMPH,Humidity,HourlyPrecipIn,Conditions,Clouds,dailyrainin,SolarRadiationWatts/m^2,SoftwareType,DateUTC
2013-06-06 00:15:00,47.9,44.0,30.14,NNE,28,0.0,0.0,85,0.00,,,0.00,0,weatherlink.com 1.10,2013-06-06 04:15:00,
2013-06-06 00:30:00,47.4,43.0,30.13,NNE,28,0.0,0.0,84,0.00,,,0.00,0,weatherlink.com 1.10,2013-06-06 04:30:00,
2013-06-06 00:45:00,46.9,43.0,30.14,NNE,28,0.0,2.0,85,0.00,,,0.00,0,weatherlink.com 1.10,2013-06-06 04:45:00,
2013-06-06 01:00:00,46.3,43.0,30.14,NNE,28,0.0,0.0,87,0.00,,,0.00,0,weatherlink.com 1.10,2013-06-06 05:00:00,
2013-06-06 01:15:00,45.7,42.0,30.14,NNE,28,0.0,2.0,88,0.00,,,0.00,0,weatherlink.com 1.10,2013-06-06 05:15:00,
2013-06-06 01:30:00,45.1,42.0,30.14,NNE,28,0.0,0.0,89,0.00,,,0.00,0,weatherlink.com 1.10,2013-06-06 05:30:00,
2013-06-06 01:45:00,44.6,42.0,30.14,NNE,28,0.0,0.0,89,0.00,,,0.00,0,weatherlink.com 1.10,2013-06-06 05:45:00,
2013-06-06 02:00:00,44.5,42.0,30.14,NNE,28,0.0,0.0,89,0.00,,,0.00,0,weatherlink.com 1.10,2013-06-06 06:00:00,
2013-06-06 02:15:00,44.6,42.0,30.14,NNE,28,0.0,0.0,89,0.00,,,0.00,0,weatherlink.com 1.10,2013-06-06 06:15:00,
2013-06-06 02:30:00,44.5,42.0,30.14,NNE,28,0.0,0.0,89,0.00,,,0.00,0,weatherlink.com 1.10,2013-06-06 06:30:00,
2013-06-06 02:45:00,44.4,42.0,30.14,NNE,28,0.0,0.0,90,0.00,,,0.00,0,weatherlink.com 1.10,2013-06-06 06:45:00,
2013-06-06 03:00:00,44.4,42.0,30.14,NNE,28,0.0,0.0,90,0.00,,,0.00,0,weatherlink.com 1.10,2013-06-06 07:00:00,
2013-06-06 03:15:00,44.3,42.0,30.14,NNE,28,0.0,0.0,90,0.00,,,0.00,0,weatherlink.com 1.10,2013-06-06 07:15:00,
2013-06-06 03:30:00,44.2,42.0,30.14,NNE,28,0.0,0.0,90,0.00,,,0.00,0,weatherlink.com 1.10,2013-06-06 07:30:00,
2013-06-06 03:45:00,44.1,41.0,30.14,NNE,28,0.0,0.0,90,0.00,,,0.00,0,weatherlink.com 1.10,2013-06-06 07:45:00,
2013-06-06 04:00:00,44.0,41.0,30.14,NNE,28,0.0,0.0,90,0.00,,,0.00,0,weatherlink.com 1.10,2013-06-06 08:00:00,
2013-06-06 04:15:00,44.0,42.0,30.14,NNE,28,0.0,0.0,91,0.00,,,0.00,0,weatherlink.com 1.10,2013-06-06 08:15:00,
2013-06-06 04:30:00,44.3,42.0,30.15,NNE,28,0.0,0.0,92,0.00,,,0.00,0,weatherlink.com 1.10,2013-06-06 08:30:00,
2013-06-06 04:45:00,44.6,43.0,30.15,NNE,28,0.0,0.0,92,0.00,,,0.00,0,weatherlink.com 1.10,2013-06-06 08:45:00,
2013-06-06 05:00:00,44.7,42.0,30.15,NNE,28,0.0,0.0,91,0.00,,,0.00,0,weatherlink.com 1.10,2013-06-06 09:00:00,
2013-06-06 05:15:00,44.9,43.0,30.15,NNE,28,0.0,0.0,92,0.00,,,0.00,0,weatherlink.com 1.10,2013-06-06 09:15:00,
2013-06-06 05:30:00,45.2,43.0,30.15,NNE,28,0.0,0.0,91,0.00,,,0.00,7,weatherlink.com 1.10,2013-06-06 09:30:00,
2013-06-06 05:45:00,45.9,44.0,30.15,NNE,28,0.0,0.0,91,0.00,,,0.00,19,weatherlink.com 1.10,2013-06-06 09:45:00,
2013-06-06 06:00:00,46.2,44.0,30.15,NNE,28,0.0,0.0,92,0.00,,,0.00,12,weatherlink.com 1.10,2013-06-06 10:00:00,
2013-06-06 06:15:00,46.8,44.0,30.15,NNE,28,0.0,2.0,91,0.00,,,0.00,16,weatherlink.com 1.10,2013-06-06 10:15:00,
2013-06-06 06:30:00,46.9,44.0,30.15,North,5,0.0,2.0,90,0.00,,,0.00,19,weatherlink.com 1.10,2013-06-06 10:30:00,
2013-06-06 06:45:00,47.0,45.0,30.16,SE,124,0.0,2.0,91,0.00,,,0.00,21,weatherlink.com 1.10,2013-06-06 10:45:00,
2013-06-06 07:00:00,47.2,45.0,30.16,SE,124,1.0,2.0,90,0.00,,,0.00,23,weatherlink.com 1.10,2013-06-06 11:00:00,
2013-06-06 07:15:00,47.4,45.0,30.17,East,90,0.0,1.0,91,0.00,,,0.00,23,weatherlink.com 1.10,2013-06-06 11:15:00,
2013-06-06 07:30:00,47.7,45.0,30.17,East,90,0.0,1.0,91,0.00,,,0.00,40,weatherlink.com 1.10,2013-06-06 11:30:00,
2013-06-06 07:45:00,47.9,46.0,30.17,East,90,0.0,2.0,91,0.00,,,0.00,53,weatherlink.com 1.10,2013-06-06 11:45:00,
2013-06-06 08:00:00,48.3,46.0,30.17,East,90,0.0,0.0,90,0.00,,,0.00,67,weatherlink.com 1.10,2013-06-06 12:00:00,
2013-06-06 08:15:00,48.9,46.0,30.17,East,90,0.0,1.0,89,0.00,,,0.00,70,weatherlink.com 1.10,2013-06-06 12:15:00,
2013-06-06 08:30:00,49.6,47.0,30.17,East,90,0.0,1.0,90,0.00,,,0.00,105,weatherlink.com 1.10,2013-06-06 12:30:00,
2013-06-06 08:45:00,50.4,47.0,30.17,ENE,67,0.0,2.0,88,0.00,,,0.00,123,weatherlink.com 1.10,2013-06-06 12:45:00,
2013-06-06 09:00:00,50.6,47.0,30.16,NNE,19,0.0,3.0,88,0.00,,,0.00,160,weatherlink.com 1.10,2013-06-06 13:00:00,
2013-06-06 09:16:00,51.4,48.0,30.16,NW,309,0.0,3.0,89,0.00,,,0.00,225,weatherlink.com 1.10,2013-06-06 13:16:00,
2013-06-06 09:31:00,52.8,48.0,30.15,NNE,16,1.0,3.0,84,0.00,,,0.00,220,weatherlink.com 1.10,2013-06-06 13:31:00,
2013-06-06 09:46:00,54.4,47.0,30.15,NW,305,0.0,3.0,76,0.00,,,0.00,288,weatherlink.com 1.10,2013-06-06 13:46:00,
2013-06-06 10:01:00,55.8,48.0,30.14,NW,305,0.0,2.0,76,0.00,,,0.00,260,weatherlink.com 1.10,2013-06-06 14:01:00,
2013-06-06 10:46:00,57.0,50.0,30.15,NW,313,2.0,4.0,76,0.00,,,0.00,211,weatherlink.com 1.10,2013-06-06 14:46:00,
2013-06-06 11:01:00,56.6,50.0,30.15,NW,313,0.0,4.0,79,0.00,,,0.00,172,weatherlink.com 1.10,2013-06-06 15:01:00,
2013-06-06 11:16:00,56.4,50.0,30.14,NW,305,1.0,4.0,80,0.00,,,0.00,156,weatherlink.com 1.10,2013-06-06 15:16:00,
2013-06-06 11:46:00,56.0,50.0,30.14,NW,306,1.0,3.0,81,0.00,,,0.00,123,weatherlink.com 1.10,2013-06-06 15:46:00,
2013-06-06 12:01:00,55.8,50.0,30.14,NNW,336,1.0,5.0,80,0.00,,,0.00,179,weatherlink.com 1.10,2013-06-06 16:01:00,
2013-06-06 12:16:00,56.2,50.0,30.14,North,360,2.0,5.0,80,0.00,,,0.00,174,weatherlink.com 1.10,2013-06-06 16:16:00,
2013-06-06 12:46:00,56.5,50.0,30.13,NW,304,2.0,6.0,80,0.00,,,0.00,142,weatherlink.com 1.10,2013-06-06 16:46:00,
2013-06-06 13:01:00,56.5,50.0,30.13,North,5,2.0,5.0,80,0.00,,,0.00,123,weatherlink.com 1.10,2013-06-06 17:01:00,
2013-06-06 13:16:00,56.2,50.0,30.13,West,265,3.0,7.0,80,0.00,,,0.00,105,weatherlink.com 1.10,2013-06-06 17:16:00,
2013-06-06 13:31:00,56.3,50.0,30.13,ENE,61,1.0,5.0,79,0.00,,,0.00,116,weatherlink.com 1.10,2013-06-06 17:31:00,
2013-06-06 13:46:00,56.6,49.0,30.12,NNE,26,4.0,7.0,77,0.00,,,0.00,151,weatherlink.com 1.10,2013-06-06 17:46:00,
2013-06-06 14:01:00,56.8,49.0,30.12,NW,314,5.0,8.0,75,0.00,,,0.00,172,weatherlink.com 1.10,2013-06-06 18:01:00,
2013-06-06 14:16:00,56.3,50.0,30.12,North,5,2.0,8.0,79,0.00,,,0.00,174,weatherlink.com 1.10,2013-06-06 18:16:00,
2013-06-06 14:46:00,55.4,50.0,30.12,WSW,242,3.0,6.0,83,0.00,,,0.00,148,weatherlink.com 1.10,2013-06-06 18:46:00,
2013-06-06 15:01:00,55.4,50.0,30.11,North,360,5.0,6.0,83,0.00,,,0.00,104,weatherlink.com 1.10,2013-06-06 19:01:00,
2013-06-06 15:16:00,55.3,51.0,30.11,NNW,339,2.0,6.0,84,0.00,,,0.00,118,weatherlink.com 1.10,2013-06-06 19:16:00,
2013-06-06 15:46:00,55.1,51.0,30.10,WNW,302,3.0,7.0,86,0.00,,,0.00,105,weatherlink.com 1.10,2013-06-06 19:46:00,
2013-06-06 16:01:00,54.7,51.0,30.09,NW,313,5.0,8.0,87,0.00,,,0.00,70,weatherlink.com 1.10,2013-06-06 20:01:00,
2013-06-06 16:16:00,54.4,51.0,30.09,NW,323,2.0,7.0,88,0.00,,,0.00,58,weatherlink.com 1.10,2013-06-06 20:16:00,
2013-06-06 16:31:00,54.2,51.0,30.09,NW,318,4.0,8.0,87,0.00,,,0.00,69,weatherlink.com 1.10,2013-06-06 20:31:00,
2013-06-06 16:46:00,54.0,51.0,30.10,NW,309,0.0,6.0,88,0.00,,,0.00,60,weatherlink.com 1.10,2013-06-06 20:46:00,
2013-06-06 17:16:00,53.3,51.0,30.09,North,5,3.0,7.0,90,0.00,,,0.00,40,weatherlink.com 1.10,2013-06-06 21:16:00,
2013-06-06 17:31:00,53.0,51.0,30.10,NNW,332,3.0,7.0,91,0.00,,,0.00,39,weatherlink.com 1.10,2013-06-06 21:31:00,
2013-06-06 17:46:00,53.0,51.0,30.11,NNW,332,2.0,4.0,91,0.00,,,0.00,32,weatherlink.com 1.10,2013-06-06 21:46:00,
2013-06-06 18:01:00,52.9,51.0,30.11,NW,309,2.0,5.0,92,0.00,,,0.00,25,weatherlink.com 1.10,2013-06-06 22:01:00,
2013-06-06 18:16:00,52.7,51.0,30.10,WNW,302,2.0,5.0,92,0.00,,,0.00,30,weatherlink.com 1.10,2013-06-06 22:16:00,
2013-06-06 18:31:00,52.5,51.0,30.09,NW,313,3.0,5.0,93,0.00,,,0.00,28,weatherlink.com 1.10,2013-06-06 22:31:00,
2013-06-06 18:46:00,52.4,51.0,30.09,WNW,303,0.0,6.0,93,0.00,,,0.00,19,weatherlink.com 1.10,2013-06-06 22:46:00,
2013-06-06 19:01:00,52.5,51.0,30.10,NW,316,2.0,5.0,93,0.00,,,0.00,12,weatherlink.com 1.10,2013-06-06 23:01:00,
2013-06-06 19:16:00,52.3,50.0,30.10,NNW,340,0.0,5.0,93,0.00,,,0.00,12,weatherlink.com 1.10,2013-06-06 23:16:00,
2013-06-06 19:31:00,52.1,51.0,30.09,West,260,2.0,7.0,94,0.00,,,0.00,11,weatherlink.com 1.10,2013-06-06 23:31:00,
2013-06-06 19:46:00,51.9,50.0,30.09,WNW,300,1.0,6.0,94,0.00,,,0.00,5,weatherlink.com 1.10,2013-06-06 23:46:00,
2013-06-06 20:01:00,51.9,50.0,30.09,NW,315,3.0,7.0,94,0.00,,,0.00,5,weatherlink.com 1.10,2013-06-07 00:01:00,
2013-06-06 20:16:00,51.5,50.0,30.09,WNW,294,0.0,7.0,94,0.00,,,0.00,0,weatherlink.com 1.10,2013-06-07 00:16:00,
2013-06-06 20:31:00,51.7,50.0,30.08,NW,314,3.0,6.0,94,0.00,,,0.00,0,weatherlink.com 1.10,2013-06-07 00:31:00,
2013-06-06 20:46:00,51.5,50.0,30.08,North,360,2.0,4.0,94,0.00,,,0.00,0,weatherlink.com 1.10,2013-06-07 00:46:00,
2013-06-06 21:01:00,51.5,50.0,30.08,NW,306,2.0,5.0,94,0.00,,,0.00,0,weatherlink.com 1.10,2013-06-07 01:01:00,
2013-06-06 21:16:00,51.4,50.0,30.08,NW,307,0.0,4.0,95,0.00,,,0.00,0,weatherlink.com 1.10,2013-06-07 01:16:00,
2013-06-06 21:31:00,51.3,50.0,30.08,West,267,4.0,6.0,95,0.00,,,0.00,0,weatherlink.com 1.10,2013-06-07 01:31:00,
2013-06-06 21:46:00,51.4,50.0,30.08,NW,323,2.0,4.0,95,0.00,,,0.00,0,weatherlink.com 1.10,2013-06-07 01:46:00,
2013-06-06 22:01:00,51.5,50.0,30.08,WNW,288,1.0,5.0,95,0.00,,,0.00,0,weatherlink.com 1.10,2013-06-07 02:01:00,
2013-06-06 22:16:00,51.6,50.0,30.08,WNW,296,0.0,3.0,95,0.00,,,0.00,0,weatherlink.com 1.10,2013-06-07 02:16:00,
2013-06-06 22:31:00,51.3,50.0,30.07,North,355,0.0,3.0,95,0.00,,,0.00,0,weatherlink.com 1.10,2013-06-07 02:31:00,
2013-06-06 22:46:00,51.2,50.0,30.07,North,349,1.0,3.0,95,0.00,,,0.00,0,weatherlink.com 1.10,2013-06-07 02:46:00,
2013-06-06 23:01:00,51.2,50.0,30.07,North,355,0.0,3.0,95,0.00,,,0.00,0,weatherlink.com 1.10,2013-06-07 03:01:00,
2013-06-06 23:16:00,51.2,50.0,30.07,North,355,0.0,3.0,95,0.00,,,0.00,0,weatherlink.com 1.10,2013-06-07 03:16:00,
2013-06-06 23:31:00,51.2,50.0,30.07,North,355,0.0,1.0,95,0.00,,,0.00,0,weatherlink.com 1.10,2013-06-07 03:31:00,
2013-06-06 23:46:00,51.2,50.0,30.07,North,355,0.0,0.0,95,0.00,,,0.00,0,weatherlink.com 1.10,2013-06-07 03:46:00,